Station SGNW3 - Sheboygan, WI Image indicating link to RSS feed of recent meteorological observations for station SGNW3


Conditions at SGNW3 as of
(3:00 pm CDT)
2000 GMT on 04/16/2024:
     

Click on the graph icon in the table below to see a time series plot of the last five days of that observation.

5-day plot - Wind Direction Wind Direction (WDIR):NNE ( 20 deg true )
5-day plot - Wind Speed Wind Speed (WSPD): 13 kts
5-day plot - Wind Gust Wind Gust (GST): 16 kts
5-day plot - Atmospheric Pressure Atmospheric Pressure (PRES):29.92 in
5-day plot - Pressure Tendency Pressure Tendency (PTDY):-0.12 in ( Falling Rapidly )
5-day plot - Air Temperature Air Temperature (ATMP): 43.5 °F
5-day plot - Wind Chill Wind Chill (CHILL): 36.3 °F
5-day plot - Wind Speed at 10 Meters Wind Speed at 10 meters (WSPD10M): 14 kts
5-day plot - Wind Speed at 20 Meters Wind Speed at 20 meters (WSPD20M): 14 kts
5-day plot -  Wind Speed, Wind Gust and Atmospheric Pressure Combined plot of Wind Speed, Gust, and Air Pressure
Continuous Winds
TIME
(CDT)
5-day plot - Wind Direction WDIR 5-day plot - Wind Speed WSPD
3:00 pmNNE ( 23 deg ) 14 kts
2:50 pmNNE ( 28 deg ) 16 kts
2:40 pmNNE ( 26 deg ) 14 kts
2:30 pmNNE ( 22 deg ) 13 kts
2:20 pmNNE ( 20 deg ) 14 kts
2:10 pmNNE ( 21 deg ) 14 kts
 
Peak gust during the measurement hour
TIME
(CDT)
5-day plot - Gust Direction GDR 5-day plot - Gust Speed GST
2:41 pmNNE ( 30 deg ) 18 kts
Previous observations
TIME
(CDT)
5-day plot - Wind Direction
WDIR
 
5-day plot - Wind Speed
WSPD
kts
5-day plot - Wind Gust
GST
kts
5-day plot - Wave Height
WVHT
ft
5-day plot - Dominant Wave Period
DPD
sec
5-day plot - Average Wave Period
APD
sec
5-day plot - Mean Wave Direction
MWD
 
5-day plot - Atmospheric Pressure
PRES
in
5-day plot - Pressure Tendency
PTDY
in
5-day plot - Air Temperature
ATMP
°F
5-day plot - Water Temperature
WTMP
°F
5-day plot - Dew Point
DEWP
°F
5-day plot - Salinity
SAL
psu
5-day plot - Visibility
VIS
nmi
5-day plot - Tide (above MLLW)
TIDE
ft
2024-04-16 02:00 pmNNE 14 16----29.98-0.13 43.0-----
2024-04-16 01:00 pmNNE 13 16----30.02-0.09 42.8-----
2024-04-16 12:00 pm NE 13 14----30.04-0.06 43.0-----
2024-04-16 11:00 amNNE 9 10----30.11-0.02 42.3-----
2024-04-16 10:00 amNNE 7 8----30.11-0.01 42.1-----
2024-04-16 09:00 am NE 9 10----30.11+0.00 42.3-----
2024-04-16 08:00 am NE 7 8----30.13+0.05 42.1-----
2024-04-16 07:00 amENE 10 12----30.13+0.04 42.3-----
2024-04-16 06:00 am NE 12 13----30.11+0.00 42.4-----
2024-04-16 05:00 amENE 13 14----30.08-0.04 43.0-----
2024-04-16 04:00 amENE 15 17----30.08-0.04 43.2-----
2024-04-16 03:00 am NE 15 16----30.10-0.01 43.7-----
2024-04-16 02:00 am NE 11 12----30.12+0.01 43.5-----
2024-04-16 01:00 amNNE 10 11----30.13+0.04 43.9-----
2024-04-16 12:00 am N 12 12----30.11+0.03 44.2-----
2024-04-15 11:00 pmNNE 11 12----30.11+0.04 45.0-----
2024-04-15 10:00 pmNNE 11 12----30.09+0.05 45.3-----
2024-04-15 09:00 pm N 9 11----30.09+0.06 45.5-----
2024-04-15 08:00 pm SE 2 2----30.07+0.06 46.8-----
2024-04-15 07:00 pm E 9 10----30.04+0.04 47.1-----
2024-04-15 06:00 pm E 10 10----30.03+0.02 44.4-----
2024-04-15 05:00 pm S 14 14----30.01+0.02 47.3-----
2024-04-15 04:00 pmSSE 13 14----30.00+0.01 46.8-----
2024-04-15 03:00 pmSSE 12 12----30.01+0.00 45.0-----